Time,TemperatureF,DewpointF,PressureIn,WindDirection,WindDirectionDegrees,WindSpeedMPH,WindSpeedGustMPH,Humidity,HourlyPrecipIn,Conditions,Clouds,dailyrainin,SoftwareType,DateUTC
2013-09-07 00:01:00,58.3,57.9,30.12,NE,37,0.0,0.0,99,0.00,,,0.00,meteohub,2013-09-07 04:01:00,
2013-09-07 00:02:00,58.3,57.9,30.12,NE,37,0.0,0.0,99,0.00,,,0.00,meteohub,2013-09-07 04:02:00,
2013-09-07 00:03:00,58.3,57.9,30.11,NE,37,0.0,0.0,99,0.00,,,0.00,meteohub,2013-09-07 04:03:00,
2013-09-07 00:08:00,58.3,57.9,30.12,NE,37,0.0,0.0,99,0.00,,,0.00,meteohub,2013-09-07 04:08:00,
2013-09-07 00:13:00,58.1,57.7,30.12,NE,37,0.0,0.0,99,0.00,,,0.00,meteohub,2013-09-07 04:13:00,
2013-09-07 00:18:00,57.9,57.6,30.12,NE,37,0.0,0.0,99,0.00,,,0.00,meteohub,2013-09-07 04:18:00,
2013-09-07 00:23:00,57.9,57.6,30.12,NE,37,0.0,0.0,99,0.00,,,0.00,meteohub,2013-09-07 04:23:00,
2013-09-07 00:28:00,57.7,57.4,30.12,NE,37,0.0,0.0,99,0.00,,,0.00,meteohub,2013-09-07 04:28:00,
2013-09-07 00:33:00,57.6,57.2,30.12,NE,37,0.0,0.0,99,0.00,,,0.00,meteohub,2013-09-07 04:33:00,
2013-09-07 00:38:00,57.6,57.2,30.12,NE,35,0.0,0.0,99,0.00,,,0.00,meteohub,2013-09-07 04:38:00,
2013-09-07 00:43:00,57.7,57.4,30.12,NE,36,0.0,0.0,99,0.00,,,0.00,meteohub,2013-09-07 04:43:00,
2013-09-07 00:48:00,57.6,57.2,30.12,NE,35,0.0,0.0,99,0.00,,,0.00,meteohub,2013-09-07 04:48:00,
2013-09-07 00:53:00,57.4,57.0,30.12,NE,35,0.0,0.0,99,0.00,,,0.00,meteohub,2013-09-07 04:53:00,
2013-09-07 00:58:00,57.2,56.8,30.12,NE,37,0.0,0.0,99,0.00,,,0.00,meteohub,2013-09-07 04:58:00,
2013-09-07 01:03:00,57.4,57.0,30.12,NE,37,0.0,0.0,99,0.00,,,0.00,meteohub,2013-09-07 05:03:00,
2013-09-07 01:08:00,57.4,57.4,30.11,NE,37,0.0,0.0,100,0.00,,,0.00,meteohub,2013-09-07 05:08:00,
2013-09-07 01:13:00,57.4,57.4,30.12,NE,37,0.0,0.0,100,0.00,,,0.00,meteohub,2013-09-07 05:13:00,
2013-09-07 01:18:00,57.4,57.4,30.12,NE,37,0.0,0.0,100,0.00,,,0.00,meteohub,2013-09-07 05:18:00,
2013-09-07 01:23:00,57.4,57.4,30.12,NE,36,0.0,0.0,100,0.00,,,0.00,meteohub,2013-09-07 05:23:00,
2013-09-07 01:29:00,57.2,57.2,30.12,NE,36,0.0,0.0,100,0.00,,,0.00,meteohub,2013-09-07 05:29:00,
2013-09-07 01:34:00,57.0,57.0,30.11,NE,36,0.0,0.0,100,0.00,,,0.00,meteohub,2013-09-07 05:34:00,
2013-09-07 01:39:00,57.0,57.0,30.12,NE,37,0.0,0.0,100,0.00,,,0.00,meteohub,2013-09-07 05:39:00,
2013-09-07 01:44:00,57.0,57.0,30.12,NE,37,0.0,0.0,100,0.00,,,0.00,meteohub,2013-09-07 05:44:00,
2013-09-07 01:49:00,57.0,57.0,30.11,NE,36,0.0,0.0,100,0.00,,,0.00,meteohub,2013-09-07 05:49:00,
2013-09-07 01:54:00,57.0,57.0,30.11,NE,34,0.0,0.0,100,0.00,,,0.00,meteohub,2013-09-07 05:54:00,
2013-09-07 01:59:00,56.8,56.8,30.12,NE,35,0.0,0.0,100,0.00,,,0.00,meteohub,2013-09-07 05:59:00,
2013-09-07 02:04:00,56.7,56.7,30.11,NE,36,0.0,0.0,100,0.00,,,0.00,meteohub,2013-09-07 06:04:00,
2013-09-07 02:09:00,56.7,56.7,30.11,NE,34,0.0,0.0,100,0.00,,,0.00,meteohub,2013-09-07 06:09:00,
2013-09-07 02:14:00,56.7,56.7,30.11,North,11,0.0,0.0,100,0.00,,,0.00,meteohub,2013-09-07 06:14:00,
2013-09-07 02:19:00,56.5,56.5,30.11,North,10,0.0,0.0,100,0.00,,,0.00,meteohub,2013-09-07 06:19:00,
2013-09-07 02:24:00,56.1,56.1,30.11,North,10,0.0,0.0,100,0.00,,,0.00,meteohub,2013-09-07 06:24:00,
2013-09-07 02:29:00,56.1,56.1,30.11,North,11,0.0,0.0,100,0.00,,,0.00,meteohub,2013-09-07 06:29:00,
2013-09-07 02:34:00,55.9,55.9,30.11,North,11,0.0,0.0,100,0.00,,,0.00,meteohub,2013-09-07 06:34:00,
2013-09-07 02:39:00,55.8,55.8,30.11,North,10,0.0,0.0,100,0.00,,,0.00,meteohub,2013-09-07 06:39:00,
2013-09-07 02:44:00,55.9,55.9,30.11,North,11,0.0,0.0,100,0.00,,,0.00,meteohub,2013-09-07 06:44:00,
2013-09-07 02:49:00,56.1,56.1,30.11,North,11,0.0,0.0,100,0.00,,,0.00,meteohub,2013-09-07 06:49:00,
2013-09-07 02:54:00,56.1,56.1,30.11,North,11,0.0,0.0,100,0.00,,,0.00,meteohub,2013-09-07 06:54:00,
2013-09-07 02:59:00,55.9,55.9,30.10,North,10,0.0,0.0,100,0.00,,,0.00,meteohub,2013-09-07 06:59:00,
2013-09-07 03:04:00,55.6,55.6,30.10,North,11,0.0,0.0,100,0.00,,,0.00,meteohub,2013-09-07 07:04:00,
2013-09-07 03:09:00,55.2,55.2,30.10,North,11,0.0,0.0,100,0.00,,,0.00,meteohub,2013-09-07 07:09:00,
2013-09-07 03:14:00,55.4,55.4,30.10,North,11,0.0,0.0,100,0.00,,,0.00,meteohub,2013-09-07 07:14:00,
2013-09-07 03:19:00,55.6,55.6,30.10,North,10,0.0,0.0,100,0.00,,,0.00,meteohub,2013-09-07 07:19:00,
2013-09-07 03:24:00,55.4,55.4,30.10,North,10,0.0,0.0,100,0.00,,,0.00,meteohub,2013-09-07 07:24:00,
2013-09-07 03:29:00,55.4,55.4,30.10,North,10,0.0,0.0,100,0.00,,,0.00,meteohub,2013-09-07 07:29:00,
2013-09-07 03:35:00,55.4,55.4,30.10,NE,44,0.0,0.0,100,0.00,,,0.00,meteohub,2013-09-07 07:35:00,
2013-09-07 03:40:00,55.6,55.6,30.10,NE,44,0.0,0.0,100,0.00,,,0.00,meteohub,2013-09-07 07:40:00,
2013-09-07 03:45:00,55.6,55.6,30.10,NE,44,0.0,0.0,100,0.00,,,0.00,meteohub,2013-09-07 07:45:00,
2013-09-07 03:50:00,55.6,55.6,30.10,NE,44,0.0,0.0,100,0.00,,,0.00,meteohub,2013-09-07 07:50:00,
2013-09-07 03:55:00,54.7,54.7,30.10,NE,44,0.0,0.0,100,0.00,,,0.00,meteohub,2013-09-07 07:55:00,
2013-09-07 04:00:00,54.7,54.7,30.10,NE,44,0.0,0.0,100,0.00,,,0.00,meteohub,2013-09-07 08:00:00,
2013-09-07 04:05:00,54.7,54.7,30.10,North,-999,-999.0,0.0,100,0.00,,,0.00,meteohub,2013-09-07 08:05:00,
2013-09-07 07:46:00,56.3,56.3,30.11,North,-999,-999.0,-999.0,100,-99.99,,,0.00,meteohub,2013-09-07 11:46:00,
2013-09-07 07:51:00,56.5,56.5,30.11,North,-999,-999.0,-999.0,100,0.00,,,0.00,meteohub,2013-09-07 11:51:00,
2013-09-07 07:57:00,56.7,56.7,30.11,NE,51,0.0,-999.0,100,0.00,,,0.00,meteohub,2013-09-07 11:57:00,
2013-09-07 08:02:00,57.0,57.0,30.11,NE,51,0.0,0.0,100,0.00,,,0.00,meteohub,2013-09-07 12:02:00,
2013-09-07 08:07:00,57.2,57.2,30.11,NE,51,0.0,0.0,100,0.00,,,0.00,meteohub,2013-09-07 12:07:00,
2013-09-07 08:12:00,57.0,57.0,30.12,North,359,0.0,0.0,100,0.00,,,0.00,meteohub,2013-09-07 12:12:00,
2013-09-07 08:17:00,57.4,57.4,30.12,North,359,0.0,0.0,100,0.00,,,0.00,meteohub,2013-09-07 12:17:00,
2013-09-07 08:22:00,57.7,57.7,30.12,North,359,0.0,0.0,100,0.00,,,0.00,meteohub,2013-09-07 12:22:00,
2013-09-07 08:27:00,58.3,58.3,30.11,North,359,0.0,0.0,100,0.00,,,0.00,meteohub,2013-09-07 12:27:00,
2013-09-07 08:32:00,58.6,58.6,30.12,North,358,0.0,0.0,100,0.00,,,0.00,meteohub,2013-09-07 12:32:00,
2013-09-07 08:37:00,59.0,59.0,30.12,North,1,0.0,0.0,100,0.00,,,0.00,meteohub,2013-09-07 12:37:00,
2013-09-07 08:42:00,59.4,59.4,30.12,North,355,0.0,0.0,100,0.00,,,0.00,meteohub,2013-09-07 12:42:00,
2013-09-07 08:47:00,60.1,60.1,30.12,North,355,0.0,0.0,100,0.00,,,0.00,meteohub,2013-09-07 12:47:00,
2013-09-07 08:52:00,60.3,60.3,30.12,North,356,0.0,0.0,100,0.00,,,0.00,meteohub,2013-09-07 12:52:00,
2013-09-07 08:57:00,60.4,60.4,30.12,NNW,339,0.0,0.0,100,0.00,,,0.00,meteohub,2013-09-07 12:57:00,
2013-09-07 09:02:00,60.6,60.6,30.12,NW,323,0.0,0.0,100,0.00,,,0.00,meteohub,2013-09-07 13:02:00,
2013-09-07 09:07:00,61.0,61.0,30.12,North,349,0.0,0.0,100,0.00,,,0.00,meteohub,2013-09-07 13:07:00,
2013-09-07 09:12:00,62.2,62.2,30.12,North,1,0.0,0.0,100,0.00,,,0.00,meteohub,2013-09-07 13:12:00,
2013-09-07 09:17:00,62.1,62.1,30.12,North,1,0.0,0.0,100,0.00,,,0.00,meteohub,2013-09-07 13:17:00,
2013-09-07 09:22:00,63.3,63.0,30.12,NE,34,0.0,1.0,99,0.00,,,0.00,meteohub,2013-09-07 13:22:00,
2013-09-07 09:27:00,63.7,62.2,30.12,WNW,289,0.0,1.0,95,0.00,,,0.00,meteohub,2013-09-07 13:27:00,
2013-09-07 09:32:00,65.1,62.8,30.12,West,264,0.0,1.0,92,0.00,,,0.00,meteohub,2013-09-07 13:32:00,
2013-09-07 09:37:00,66.4,63.3,30.12,East,98,1.0,2.0,90,0.00,,,0.00,meteohub,2013-09-07 13:37:00,
2013-09-07 09:42:00,66.9,63.3,30.12,WNW,284,0.0,2.0,88,0.00,,,0.00,meteohub,2013-09-07 13:42:00,
2013-09-07 09:47:00,66.7,62.8,30.12,WNW,294,0.0,1.0,87,0.00,,,0.00,meteohub,2013-09-07 13:47:00,
2013-09-07 09:52:00,67.6,63.3,30.12,ESE,119,3.0,3.0,86,0.00,,,0.00,meteohub,2013-09-07 13:52:00,
2013-09-07 09:57:00,67.6,63.3,30.11,East,97,1.0,3.0,86,0.00,,,0.00,meteohub,2013-09-07 13:57:00,
2013-09-07 10:02:00,68.0,63.0,30.12,East,86,2.0,3.0,84,0.00,,,0.00,meteohub,2013-09-07 14:02:00,
2013-09-07 10:07:00,68.7,63.0,30.12,ESE,102,1.0,3.0,82,0.00,,,0.00,meteohub,2013-09-07 14:07:00,
2013-09-07 10:12:00,69.4,63.7,30.12,NW,310,0.0,3.0,82,0.00,,,0.00,meteohub,2013-09-07 14:12:00,
2013-09-07 10:17:00,69.3,63.9,30.12,ENE,66,0.0,3.0,83,0.00,,,0.00,meteohub,2013-09-07 14:17:00,
2013-09-07 10:22:00,70.0,63.5,30.12,West,271,1.0,3.0,80,0.00,,,0.00,meteohub,2013-09-07 14:22:00,
2013-09-07 10:27:00,68.7,62.6,30.12,WNW,294,0.0,4.0,81,0.00,,,0.00,meteohub,2013-09-07 14:27:00,
2013-09-07 10:32:00,68.7,62.2,30.12,West,277,0.0,4.0,80,0.00,,,0.00,meteohub,2013-09-07 14:32:00,
2013-09-07 10:37:00,68.5,62.1,30.12,NW,312,0.0,4.0,80,0.00,,,0.00,meteohub,2013-09-07 14:37:00,
2013-09-07 10:42:00,68.5,62.1,30.12,WNW,293,0.0,4.0,80,0.00,,,0.00,meteohub,2013-09-07 14:42:00,
2013-09-07 10:47:00,69.3,62.8,30.12,WSW,246,0.0,5.0,80,0.00,,,0.00,meteohub,2013-09-07 14:47:00,
2013-09-07 10:52:00,69.8,62.6,30.12,NNE,15,0.0,5.0,78,0.00,,,0.00,meteohub,2013-09-07 14:52:00,
2013-09-07 10:57:00,70.2,62.6,30.12,WSW,249,2.0,4.0,77,0.00,,,0.00,meteohub,2013-09-07 14:57:00,
2013-09-07 11:02:00,70.0,62.8,30.12,SW,221,0.0,5.0,78,0.00,,,0.00,meteohub,2013-09-07 15:02:00,
2013-09-07 11:07:00,70.7,63.1,30.12,NW,316,1.0,5.0,77,0.00,,,0.00,meteohub,2013-09-07 15:07:00,
2013-09-07 11:12:00,70.7,63.5,30.12,West,270,0.0,5.0,78,0.00,,,0.00,meteohub,2013-09-07 15:12:00,
2013-09-07 11:17:00,71.1,62.8,30.12,SE,127,3.0,3.0,75,0.00,,,0.00,meteohub,2013-09-07 15:17:00,
2013-09-07 11:22:00,70.3,62.8,30.12,SE,143,1.0,4.0,77,0.00,,,0.00,meteohub,2013-09-07 15:22:00,
2013-09-07 11:27:00,69.6,63.1,30.12,WSW,249,0.0,4.0,80,0.00,,,0.00,meteohub,2013-09-07 15:27:00,
2013-09-07 11:32:00,70.0,62.4,30.12,WSW,239,0.0,4.0,77,0.00,,,0.00,meteohub,2013-09-07 15:32:00,
2013-09-07 11:37:00,71.2,63.7,30.12,East,94,0.0,4.0,77,0.00,,,0.00,meteohub,2013-09-07 15:37:00,
2013-09-07 11:42:00,71.8,63.0,30.12,SE,143,1.0,4.0,74,0.00,,,0.00,meteohub,2013-09-07 15:42:00,
2013-09-07 11:47:00,71.2,63.3,30.12,SSE,160,2.0,10.0,76,0.00,,,0.00,meteohub,2013-09-07 15:47:00,
2013-09-07 11:52:00,71.4,63.5,30.11,WNW,301,0.0,10.0,76,0.00,,,0.00,meteohub,2013-09-07 15:52:00,
2013-09-07 11:57:00,72.3,63.9,30.11,SSW,207,3.0,10.0,75,0.00,,,0.00,meteohub,2013-09-07 15:57:00,
2013-09-07 12:02:00,73.4,64.6,30.11,SE,132,0.0,10.0,74,0.00,,,0.00,meteohub,2013-09-07 16:02:00,
2013-09-07 12:07:00,73.6,64.0,30.10,NNW,347,0.0,5.0,72,0.00,,,0.00,meteohub,2013-09-07 16:07:00,
2013-09-07 12:12:00,73.6,64.0,30.10,SE,143,0.0,5.0,72,0.00,,,0.00,meteohub,2013-09-07 16:12:00,
2013-09-07 12:17:00,72.9,63.7,30.10,NW,311,1.0,4.0,73,0.00,,,0.00,meteohub,2013-09-07 16:17:00,
2013-09-07 12:22:00,72.1,64.2,30.10,WSW,243,0.0,5.0,76,0.00,,,0.00,meteohub,2013-09-07 16:22:00,
2013-09-07 12:27:00,72.0,63.7,30.10,NNW,339,0.0,5.0,75,0.00,,,0.00,meteohub,2013-09-07 16:27:00,
2013-09-07 12:32:00,72.9,64.8,30.09,West,275,0.0,5.0,76,0.00,,,0.00,meteohub,2013-09-07 16:32:00,
2013-09-07 12:37:00,73.0,63.5,30.09,NNW,346,3.0,5.0,72,0.00,,,0.00,meteohub,2013-09-07 16:37:00,
2013-09-07 12:42:00,74.1,64.9,30.09,ESE,108,1.0,5.0,73,0.00,,,0.00,meteohub,2013-09-07 16:42:00,
2013-09-07 12:47:00,75.4,64.9,30.09,ESE,108,0.0,5.0,70,0.00,,,0.00,meteohub,2013-09-07 16:47:00,
2013-09-07 12:52:00,76.3,65.3,30.09,East,80,1.0,6.0,69,0.00,,,0.00,meteohub,2013-09-07 16:52:00,
2013-09-07 12:57:00,75.7,64.8,30.09,SSE,164,0.0,6.0,69,0.00,,,0.00,meteohub,2013-09-07 16:57:00,
2013-09-07 13:02:00,74.7,65.1,30.08,ESE,122,0.0,6.0,72,0.00,,,0.00,meteohub,2013-09-07 17:02:00,
2013-09-07 13:07:00,75.6,64.8,30.08,West,264,2.0,3.0,69,0.00,,,0.00,meteohub,2013-09-07 17:07:00,
2013-09-07 13:12:00,75.4,64.6,30.08,NNW,346,0.0,4.0,69,0.00,,,0.00,meteohub,2013-09-07 17:12:00,
2013-09-07 13:17:00,75.7,64.8,30.08,SE,129,0.0,4.0,69,0.00,,,0.00,meteohub,2013-09-07 17:17:00,
2013-09-07 13:22:00,75.6,65.1,30.08,SSW,194,2.0,4.0,70,0.00,,,0.00,meteohub,2013-09-07 17:22:00,
2013-09-07 13:27:00,75.9,64.9,30.08,SE,143,1.0,4.0,69,0.00,,,0.00,meteohub,2013-09-07 17:27:00,
2013-09-07 13:32:00,76.8,65.8,30.08,NE,44,1.0,4.0,69,0.00,,,0.00,meteohub,2013-09-07 17:32:00,
2013-09-07 13:37:00,77.7,64.6,30.08,SW,228,1.0,5.0,64,0.00,,,0.00,meteohub,2013-09-07 17:37:00,
2013-09-07 13:42:00,77.7,65.8,30.08,West,263,3.0,5.0,67,0.00,,,0.00,meteohub,2013-09-07 17:42:00,
2013-09-07 13:47:00,77.5,64.8,30.07,SSE,155,2.0,5.0,65,0.00,,,0.00,meteohub,2013-09-07 17:47:00,
2013-09-07 13:52:00,78.4,64.8,30.07,SE,143,1.0,5.0,63,0.00,,,0.00,meteohub,2013-09-07 17:52:00,
2013-09-07 13:57:00,78.6,65.5,30.07,SSE,162,0.0,4.0,64,0.00,,,0.00,meteohub,2013-09-07 17:57:00,
2013-09-07 14:02:00,79.0,66.2,30.07,SSW,192,1.0,5.0,65,0.00,,,0.00,meteohub,2013-09-07 18:02:00,
2013-09-07 14:07:00,79.9,66.6,30.06,West,266,0.0,6.0,64,0.00,,,0.00,meteohub,2013-09-07 18:07:00,
2013-09-07 14:12:00,79.3,65.7,30.06,SSE,163,1.0,6.0,63,0.00,,,0.00,meteohub,2013-09-07 18:12:00,
2013-09-07 14:17:00,79.9,66.6,30.06,SE,143,0.0,6.0,64,0.00,,,0.00,meteohub,2013-09-07 18:17:00,
2013-09-07 14:22:00,80.1,66.7,30.06,SSW,207,6.0,6.0,64,0.00,,,0.00,meteohub,2013-09-07 18:22:00,
2013-09-07 14:27:00,79.3,66.0,30.06,SE,141,3.0,8.0,64,0.00,,,0.00,meteohub,2013-09-07 18:27:00,
2013-09-07 14:32:00,78.3,66.4,30.06,NE,41,0.0,8.0,67,0.00,,,0.00,meteohub,2013-09-07 18:32:00,
2013-09-07 14:37:00,78.6,66.4,30.06,SSE,162,1.0,8.0,66,0.00,,,0.00,meteohub,2013-09-07 18:37:00,
2013-09-07 14:42:00,78.8,66.9,30.05,West,259,2.0,8.0,67,0.00,,,0.00,meteohub,2013-09-07 18:42:00,
2013-09-07 14:47:00,79.0,67.1,30.05,West,259,3.0,5.0,67,0.00,,,0.00,meteohub,2013-09-07 18:47:00,
2013-09-07 14:52:00,78.6,66.7,30.05,SE,134,1.0,6.0,67,0.00,,,0.00,meteohub,2013-09-07 18:52:00,
2013-09-07 14:57:00,78.8,66.9,30.05,SE,124,3.0,9.0,67,0.00,,,0.00,meteohub,2013-09-07 18:57:00,
2013-09-07 15:02:00,79.2,66.7,30.05,West,267,1.0,9.0,66,0.00,,,0.00,meteohub,2013-09-07 19:02:00,
2013-09-07 15:07:00,79.2,67.3,30.05,West,260,0.0,9.0,67,0.00,,,0.00,meteohub,2013-09-07 19:07:00,
2013-09-07 15:12:00,79.5,67.1,30.05,NNE,12,0.0,5.0,66,0.00,,,0.00,meteohub,2013-09-07 19:12:00,
2013-09-07 15:17:00,79.2,66.4,30.04,ESE,105,0.0,5.0,65,0.00,,,0.00,meteohub,2013-09-07 19:17:00,
2013-09-07 15:22:00,78.6,66.7,30.04,SSE,147,2.0,6.0,67,0.00,,,0.00,meteohub,2013-09-07 19:22:00,
2013-09-07 15:27:00,78.8,67.3,30.04,NW,323,0.0,7.0,68,0.00,,,0.00,meteohub,2013-09-07 19:27:00,
2013-09-07 15:32:00,78.3,66.7,30.04,WSW,255,1.0,7.0,68,0.00,,,0.00,meteohub,2013-09-07 19:32:00,
2013-09-07 15:37:00,77.7,66.4,30.04,SW,214,3.0,7.0,68,0.00,,,0.00,meteohub,2013-09-07 19:37:00,
2013-09-07 15:42:00,77.7,67.1,30.04,SE,132,3.0,5.0,70,0.00,,,0.00,meteohub,2013-09-07 19:42:00,
2013-09-07 15:47:00,78.8,67.8,30.04,ESE,119,4.0,5.0,69,0.00,,,0.00,meteohub,2013-09-07 19:47:00,
2013-09-07 15:52:00,79.0,67.5,30.04,NW,314,1.0,6.0,68,0.00,,,0.00,meteohub,2013-09-07 19:52:00,
2013-09-07 15:57:00,78.6,67.1,30.04,East,94,0.0,6.0,68,0.00,,,0.00,meteohub,2013-09-07 19:57:00,
2013-09-07 16:02:00,79.0,67.5,30.03,WSW,243,0.0,6.0,68,0.00,,,0.00,meteohub,2013-09-07 20:02:00,
2013-09-07 16:07:00,79.2,67.6,30.03,North,352,1.0,5.0,68,0.00,,,0.00,meteohub,2013-09-07 20:07:00,
2013-09-07 16:12:00,78.1,66.7,30.03,South,186,0.0,5.0,68,0.00,,,0.00,meteohub,2013-09-07 20:12:00,
2013-09-07 16:17:00,77.2,67.5,30.03,South,176,1.0,5.0,72,0.00,,,0.00,meteohub,2013-09-07 20:17:00,
2013-09-07 16:22:00,76.8,66.7,30.02,East,98,0.0,5.0,71,0.00,,,0.00,meteohub,2013-09-07 20:22:00,
2013-09-07 16:27:00,77.4,67.3,30.02,NNE,15,0.0,3.0,71,0.00,,,0.00,meteohub,2013-09-07 20:27:00,
2013-09-07 16:32:00,78.3,67.3,30.02,East,86,0.0,4.0,69,0.00,,,0.00,meteohub,2013-09-07 20:32:00,
2013-09-07 16:37:00,78.1,68.4,30.02,WSW,246,1.0,4.0,72,0.00,,,0.00,meteohub,2013-09-07 20:37:00,
2013-09-07 16:42:00,77.5,67.5,30.02,ESE,109,0.0,4.0,71,0.00,,,0.00,meteohub,2013-09-07 20:42:00,
2013-09-07 16:47:00,77.4,67.6,30.02,NW,314,0.0,4.0,72,0.00,,,0.00,meteohub,2013-09-07 20:47:00,
2013-09-07 16:52:00,77.7,68.0,30.02,SW,217,0.0,4.0,72,0.00,,,0.00,meteohub,2013-09-07 20:52:00,
2013-09-07 16:57:00,78.6,68.0,30.01,ENE,63,0.0,4.0,70,0.00,,,0.00,meteohub,2013-09-07 20:57:00,
2013-09-07 17:02:00,78.6,67.6,30.01,South,190,0.0,4.0,69,0.00,,,0.00,meteohub,2013-09-07 21:02:00,
2013-09-07 17:07:00,79.0,68.7,30.01,East,83,0.0,4.0,71,0.00,,,0.00,meteohub,2013-09-07 21:07:00,
2013-09-07 17:12:00,77.9,67.8,30.01,SSW,203,0.0,6.0,71,0.00,,,0.00,meteohub,2013-09-07 21:12:00,
2013-09-07 17:17:00,77.2,67.5,30.01,SE,134,0.0,6.0,72,0.00,,,0.00,meteohub,2013-09-07 21:17:00,
2013-09-07 17:22:00,76.5,68.0,30.01,East,86,0.0,6.0,75,0.00,,,0.00,meteohub,2013-09-07 21:22:00,
2013-09-07 17:27:00,75.9,67.1,30.01,East,86,0.0,3.0,74,0.00,,,0.00,meteohub,2013-09-07 21:27:00,
2013-09-07 17:32:00,75.7,67.6,30.01,WNW,293,0.0,5.0,76,0.00,,,0.00,meteohub,2013-09-07 21:32:00,
2013-09-07 17:37:00,75.2,67.8,30.01,ESE,106,0.0,5.0,78,0.00,,,0.00,meteohub,2013-09-07 21:37:00,
2013-09-07 17:42:00,74.5,67.1,30.01,SSE,158,0.0,3.0,78,0.00,,,0.00,meteohub,2013-09-07 21:42:00,
2013-09-07 17:47:00,74.1,67.1,30.01,SSW,195,1.0,3.0,79,0.00,,,0.00,meteohub,2013-09-07 21:47:00,
2013-09-07 17:52:00,74.1,67.1,30.01,East,80,0.0,2.0,79,0.00,,,0.00,meteohub,2013-09-07 21:52:00,
2013-09-07 17:57:00,73.9,67.8,30.01,SE,131,0.0,6.0,81,0.00,,,0.00,meteohub,2013-09-07 21:57:00,
2013-09-07 18:02:00,74.1,68.0,30.01,ESE,107,0.0,6.0,81,0.00,,,0.00,meteohub,2013-09-07 22:02:00,
2013-09-07 18:07:00,73.9,67.1,30.01,East,93,1.0,6.0,79,0.00,,,0.00,meteohub,2013-09-07 22:07:00,
2013-09-07 18:12:00,74.1,67.6,30.01,East,95,0.0,4.0,80,0.00,,,0.00,meteohub,2013-09-07 22:12:00,
2013-09-07 18:17:00,74.3,67.3,30.01,SE,126,1.0,4.0,79,0.00,,,0.00,meteohub,2013-09-07 22:17:00,
2013-09-07 18:22:00,74.3,67.6,30.01,ENE,68,0.0,5.0,80,0.00,,,0.00,meteohub,2013-09-07 22:22:00,
2013-09-07 18:27:00,73.9,67.1,30.01,ESE,118,0.0,5.0,79,0.00,,,0.00,meteohub,2013-09-07 22:27:00,
2013-09-07 18:32:00,73.9,68.2,30.01,SSW,197,0.0,5.0,82,0.00,,,0.00,meteohub,2013-09-07 22:32:00,
2013-09-07 18:37:00,73.8,67.3,30.00,NW,308,0.0,2.0,80,0.00,,,0.00,meteohub,2013-09-07 22:37:00,
2013-09-07 18:42:00,73.8,67.3,30.00,ESE,111,0.0,2.0,80,0.00,,,0.00,meteohub,2013-09-07 22:42:00,
2013-09-07 18:47:00,73.6,67.5,30.00,ENE,65,0.0,2.0,81,0.00,,,0.00,meteohub,2013-09-07 22:47:00,
2013-09-07 18:52:00,73.2,67.1,30.00,WNW,299,0.0,2.0,81,0.00,,,0.00,meteohub,2013-09-07 22:52:00,
2013-09-07 18:57:00,72.9,67.5,30.00,ESE,112,0.0,2.0,83,0.00,,,0.00,meteohub,2013-09-07 22:57:00,
2013-09-07 19:02:00,72.7,67.3,30.00,SE,132,0.0,1.0,83,0.00,,,0.00,meteohub,2013-09-07 23:02:00,
2013-09-07 19:07:00,72.1,67.1,30.00,SE,131,0.0,1.0,84,0.00,,,0.00,meteohub,2013-09-07 23:07:00,
2013-09-07 19:12:00,71.8,66.7,30.00,SE,131,0.0,1.0,84,0.00,,,0.00,meteohub,2013-09-07 23:12:00,
2013-09-07 19:17:00,71.4,66.7,30.00,ESE,102,0.0,0.0,85,0.00,,,0.00,meteohub,2013-09-07 23:17:00,
2013-09-07 19:22:00,71.1,66.9,30.00,East,101,0.0,1.0,87,0.00,,,0.00,meteohub,2013-09-07 23:22:00,
2013-09-07 19:27:00,70.9,66.6,30.00,ESE,102,0.0,1.0,86,0.00,,,0.00,meteohub,2013-09-07 23:27:00,
2013-09-07 19:32:00,70.3,66.0,30.01,ESE,121,0.0,0.0,86,0.00,,,0.00,meteohub,2013-09-07 23:32:00,
2013-09-07 19:37:00,70.0,66.2,30.01,ESE,122,0.0,1.0,88,0.00,,,0.00,meteohub,2013-09-07 23:37:00,
2013-09-07 19:42:00,69.6,66.2,30.01,ESE,122,0.0,1.0,89,0.00,,,0.00,meteohub,2013-09-07 23:42:00,
2013-09-07 19:47:00,69.1,66.0,30.01,ESE,121,0.0,0.0,90,0.00,,,0.00,meteohub,2013-09-07 23:47:00,
2013-09-07 19:52:00,68.5,65.8,30.01,ESE,121,0.0,0.0,91,0.00,,,0.00,meteohub,2013-09-07 23:52:00,
2013-09-07 19:57:00,68.2,65.8,30.01,ESE,121,0.0,0.0,92,0.00,,,0.00,meteohub,2013-09-07 23:57:00,
2013-09-07 20:02:00,67.8,65.5,30.01,ESE,121,0.0,0.0,92,0.00,,,0.00,meteohub,2013-09-08 00:02:00,
2013-09-07 20:07:00,67.5,65.3,30.01,ESE,121,0.0,0.0,93,0.00,,,0.00,meteohub,2013-09-08 00:07:00,
2013-09-07 20:12:00,67.3,65.1,30.01,ESE,122,0.0,0.0,93,0.00,,,0.00,meteohub,2013-09-08 00:12:00,
2013-09-07 20:17:00,66.9,65.1,30.01,ESE,121,0.0,0.0,94,0.00,,,0.00,meteohub,2013-09-08 00:17:00,
2013-09-07 20:22:00,66.7,65.3,30.01,ESE,122,0.0,0.0,95,0.00,,,0.00,meteohub,2013-09-08 00:22:00,
2013-09-07 20:27:00,66.6,65.1,30.01,ESE,122,0.0,0.0,95,0.00,,,0.00,meteohub,2013-09-08 00:27:00,
2013-09-07 20:32:00,66.4,65.1,30.01,ESE,121,0.0,0.0,96,0.00,,,0.00,meteohub,2013-09-08 00:32:00,
2013-09-07 20:37:00,66.0,64.8,30.01,ESE,121,0.0,0.0,96,0.00,,,0.00,meteohub,2013-09-08 00:37:00,
2013-09-07 20:42:00,65.8,64.6,30.01,ESE,121,0.0,0.0,96,0.00,,,0.00,meteohub,2013-09-08 00:42:00,
2013-09-07 20:47:00,65.7,64.4,30.00,ESE,121,0.0,0.0,96,0.00,,,0.00,meteohub,2013-09-08 00:47:00,
2013-09-07 20:52:00,65.5,64.6,30.01,ESE,121,0.0,0.0,97,0.00,,,0.00,meteohub,2013-09-08 00:52:00,
2013-09-07 20:57:00,65.3,64.4,30.01,ESE,121,0.0,0.0,97,0.00,,,0.00,meteohub,2013-09-08 00:57:00,
2013-09-07 21:02:00,65.1,64.2,30.01,ESE,121,0.0,0.0,97,0.00,,,0.00,meteohub,2013-09-08 01:02:00,
2013-09-07 21:07:00,64.9,64.0,30.01,ESE,121,0.0,0.0,97,0.00,,,0.00,meteohub,2013-09-08 01:07:00,
2013-09-07 21:12:00,64.8,63.9,30.01,ESE,122,0.0,0.0,97,0.00,,,0.00,meteohub,2013-09-08 01:12:00,
2013-09-07 21:17:00,64.6,64.0,30.01,ESE,121,0.0,0.0,98,0.00,,,0.00,meteohub,2013-09-08 01:17:00,
2013-09-07 21:22:00,64.2,63.7,30.01,ESE,121,0.0,0.0,98,0.00,,,0.00,meteohub,2013-09-08 01:22:00,
2013-09-07 21:27:00,64.2,63.7,30.01,ESE,121,0.0,0.0,98,0.00,,,0.00,meteohub,2013-09-08 01:27:00,
2013-09-07 21:32:00,64.0,63.5,30.01,ESE,121,0.0,0.0,98,0.00,,,0.00,meteohub,2013-09-08 01:32:00,
2013-09-07 21:37:00,64.0,63.5,30.01,ESE,121,0.0,0.0,98,0.00,,,0.00,meteohub,2013-09-08 01:37:00,
2013-09-07 21:42:00,63.7,63.1,30.02,ESE,121,0.0,0.0,98,0.00,,,0.00,meteohub,2013-09-08 01:42:00,
2013-09-07 21:47:00,63.7,63.1,30.02,ESE,122,0.0,0.0,98,0.00,,,0.00,meteohub,2013-09-08 01:47:00,
2013-09-07 21:52:00,63.3,62.8,30.02,ESE,121,0.0,0.0,98,0.00,,,0.00,meteohub,2013-09-08 01:52:00,
2013-09-07 21:57:00,63.1,62.6,30.02,ESE,121,0.0,0.0,98,0.00,,,0.00,meteohub,2013-09-08 01:57:00,
2013-09-07 22:02:00,63.0,62.4,30.02,ESE,121,0.0,0.0,98,0.00,,,0.00,meteohub,2013-09-08 02:02:00,
2013-09-07 22:07:00,63.0,62.4,30.02,ESE,121,0.0,0.0,98,0.00,,,0.00,meteohub,2013-09-08 02:07:00,
2013-09-07 22:12:00,62.8,62.4,30.02,ESE,121,0.0,0.0,99,0.00,,,0.00,meteohub,2013-09-08 02:12:00,
2013-09-07 22:17:00,62.6,62.2,30.02,ESE,121,0.0,0.0,99,0.00,,,0.00,meteohub,2013-09-08 02:17:00,
2013-09-07 22:22:00,62.4,62.1,30.02,ESE,121,0.0,0.0,99,0.00,,,0.00,meteohub,2013-09-08 02:22:00,
2013-09-07 22:27:00,62.4,62.1,30.02,ESE,121,0.0,0.0,99,0.00,,,0.00,meteohub,2013-09-08 02:27:00,
2013-09-07 22:32:00,62.4,62.1,30.02,ESE,121,0.0,0.0,99,0.00,,,0.00,meteohub,2013-09-08 02:32:00,
2013-09-07 22:37:00,62.4,62.1,30.02,ESE,121,0.0,0.0,99,0.00,,,0.00,meteohub,2013-09-08 02:37:00,
2013-09-07 22:42:00,62.4,62.1,30.02,ESE,121,0.0,0.0,99,0.00,,,0.00,meteohub,2013-09-08 02:42:00,
2013-09-07 22:47:00,62.4,62.1,30.02,ESE,121,0.0,0.0,99,0.00,,,0.00,meteohub,2013-09-08 02:47:00,
2013-09-07 22:52:00,62.6,62.2,30.02,ESE,121,0.0,0.0,99,0.00,,,0.00,meteohub,2013-09-08 02:52:00,
2013-09-07 22:57:00,62.6,62.2,30.02,ESE,121,0.0,0.0,99,0.00,,,0.00,meteohub,2013-09-08 02:57:00,
2013-09-07 23:02:00,62.6,62.2,30.02,ESE,121,0.0,0.0,99,0.00,,,0.00,meteohub,2013-09-08 03:02:00,
2013-09-07 23:07:00,62.6,62.2,30.02,ESE,121,0.0,0.0,99,0.00,,,0.00,meteohub,2013-09-08 03:07:00,
2013-09-07 23:12:00,62.4,62.1,30.02,ESE,121,0.0,0.0,99,0.00,,,0.00,meteohub,2013-09-08 03:12:00,
2013-09-07 23:17:00,62.4,62.1,30.02,ESE,122,0.0,0.0,99,0.00,,,0.00,meteohub,2013-09-08 03:17:00,
2013-09-07 23:22:00,62.2,61.9,30.02,ESE,121,0.0,0.0,99,0.00,,,0.00,meteohub,2013-09-08 03:22:00,
2013-09-07 23:27:00,62.2,61.9,30.02,ESE,121,0.0,0.0,99,0.00,,,0.00,meteohub,2013-09-08 03:27:00,
2013-09-07 23:32:00,62.2,61.9,30.02,ESE,121,0.0,0.0,99,0.00,,,0.00,meteohub,2013-09-08 03:32:00,
2013-09-07 23:37:00,62.1,61.7,30.01,ESE,122,0.0,0.0,99,0.00,,,0.00,meteohub,2013-09-08 03:37:00,
2013-09-07 23:42:00,62.1,61.7,30.02,ESE,121,0.0,0.0,99,0.00,,,0.00,meteohub,2013-09-08 03:42:00,
2013-09-07 23:47:00,62.1,61.7,30.02,ESE,121,0.0,0.0,99,0.00,,,0.00,meteohub,2013-09-08 03:47:00,
2013-09-07 23:52:00,61.9,61.5,30.01,ESE,121,0.0,0.0,99,0.00,,,0.00,meteohub,2013-09-08 03:52:00,
2013-09-07 23:57:00,61.9,61.5,30.01,ESE,121,0.0,0.0,99,0.00,,,0.00,meteohub,2013-09-08 03:57:00,